Flag for Luxembourg Weather past 2 weeks in Esch-sur-Alzette, Luxembourg

Now
50 °F

Sunny.


Feels Like: 46 °F
Forecast: 40 / 58 °F
Wind: 9 mph from Northeast

Location: Luxembourg Airport

Current Time: Apr 18, 2015 at 9:28:52 PM

Latest Report: Apr 18, 2015 at 8:50 PM


Visibility: 10 mi

Pressure: 30.18 "Hg

Humidity: 40%

Dew point: 27 °F

Location of Esch-sur-AlzetteLocation

Historic Weather in Esch-sur-Alzette — Graph

°F

Esch-sur-Alzette temperature yesterday

Maximum temperature yesterday: 57 °F (at 12:20 AM)
Minimum temperature yesterday: 46 °F (at 10:50 PM)
Average temperature yesterday: 52 °F

Past Weeks' High & Low Weather Summary

 TemperatureHumidityPressure
High75 °F (Apr 15, 5:20 PM)100% (Apr 3, 8:20 PM)30.60 "Hg (Apr 3, 8:20 PM)
Low30 °F (Apr 6, 6:50 AM)24% (Apr 15, 5:20 PM)29.86 "Hg (Apr 17, 4:20 AM)
Average51 °F63%30.23 "Hg
* Reported Apr 3 7:20 PM — Apr 18 7:50 PM, Esch-sur-Alzette, Weather by CustomWeather, © 2015

Note: Actual official high and low records may vary slightly from our data, if they occured in-between our weather recording intervals... More about our weather records

Advertising

Esch-sur-Alzette weather history for previous 24 hours

 ConditionsComfort  
Time TempWeatherWind HumidityBarometerVisibility
7:50 PM
Sat, Apr 18
54 °FPassing clouds.13 mph35%30.18 "HgN/A
7:20 PM54 °FPassing clouds.13 mph35%30.18 "HgN/A
6:50 PM54 °FPassing clouds.14 mph35%30.18 "HgN/A
6:20 PM55 °FPassing clouds.12 mph33%30.18 "HgN/A
5:50 PM55 °FPassing clouds.14 mph33%30.18 "HgN/A
5:20 PM55 °FPassing clouds.15 mph33%30.18 "HgN/A
4:50 PM55 °FPassing clouds.15 mph33%30.21 "HgN/A
4:20 PM55 °FPassing clouds.14 mph31%30.21 "HgN/A
3:50 PM55 °FPassing clouds.15 mph33%30.21 "HgN/A
3:20 PM55 °FPassing clouds.17 mph33%30.21 "HgN/A
2:50 PM54 °FPassing clouds.16 mph35%30.24 "HgN/A
2:20 PM54 °FPassing clouds.14 mph35%30.24 "HgN/A
1:50 PM54 °FPassing clouds.17 mph33%30.24 "HgN/A
1:20 PM54 °FPassing clouds.14 mph41%30.24 "HgN/A
12:50 PM54 °FPassing clouds.15 mph41%30.24 "HgN/A
12:20 PM52 °FPassing clouds.13 mph41%30.24 "HgN/A
11:50 AM52 °FPassing clouds.15 mph44%30.24 "HgN/A
11:20 AM52 °FPassing clouds.14 mph50%30.24 "HgN/A
10:50 AM50 °FPassing clouds.13 mph54%30.24 "HgN/A
10:20 AM48 °FPassing clouds.15 mph58%30.24 "HgN/A
9:50 AM46 °FPassing clouds.13 mph62%30.24 "HgN/A
9:20 AM45 °FSunny.13 mph66%30.21 "Hg10 mi
8:50 AM43 °FSunny.15 mph66%30.21 "Hg10 mi
8:20 AM41 °FSunny.13 mph70%30.21 "Hg10 mi
7:50 AM41 °FSunny.12 mph70%30.21 "Hg10 mi
7:20 AM39 °FClear.10 mph75%30.18 "Hg10 mi
6:50 AM39 °FClear.10 mph70%30.18 "Hg10 mi
6:20 AM39 °FClear.10 mph70%30.18 "Hg10 mi
5:50 AM39 °FClear.12 mph70%30.18 "Hg10 mi
5:20 AM41 °FClear.13 mph66%30.18 "Hg10 mi
4:50 AM41 °FClear.13 mph66%30.18 "Hg10 mi
4:20 AM41 °FQuite cool.12 mph66%30.18 "HgN/A
3:50 AM41 °FQuite cool.13 mph70%30.18 "HgN/A
3:20 AM43 °FQuite cool.12 mph66%30.18 "HgN/A
2:50 AM43 °FQuite cool.13 mph66%30.15 "HgN/A
2:20 AM43 °FQuite cool.13 mph66%30.15 "HgN/A
1:50 AM45 °FClear.9 mph61%30.15 "Hg10 mi
1:20 AM45 °FClear.10 mph61%30.15 "Hg10 mi
12:50 AM45 °FClear.10 mph61%30.12 "Hg10 mi
12:20 AM46 °FClear.12 mph57%30.12 "Hg10 mi
11:50 PM
Fri, Apr 17
46 °FClear.10 mph62%30.12 "Hg10 mi
11:20 PM46 °FClear.12 mph62%30.09 "Hg10 mi
10:50 PM46 °FClear.14 mph62%30.09 "Hg10 mi
10:20 PM48 °FPassing clouds.13 mph58%30.09 "HgN/A
9:50 PM48 °FClear.15 mph58%30.07 "Hg10 mi
9:20 PM48 °FSunny.15 mph58%30.07 "Hg10 mi
Weather by CustomWeather, © 2015

See weather overviewHow to use our weather pages